Date String (YYYY-MM-DD hh:mm:ss) UTC,Instrument flags,Ambient pressure (hPa),Sample flow (lpm),Bypass flow (lpm),Sample temperature (°C),Ambient temperature (°C),ASC tube jacket temperature (°C),LED temperature (°C),Box temperature (°C),Sample RH (%),Span deviation,Mass concentration (μg/m³),Mass concentration (μg/m³),Mass concentration (μg/m³)
DateTimeUTC,F1_M11,P_M11,Q1_M11,Q2_M11,T1_M11,T2_M11,T3_M11,T4_M11,T5_M11,U1_M11,ZSPAN_M11,X2_M11,X0_M11,X1_M11
2023-05-04 02:00:00,,0824.9,5.01,0.00,29.9,28.4,00.0,38.2,31.5,11.0,0000.0,0005.60,0022.31,0003.36
2023-05-04 02:01:00,,0824.9,5.01,0.00,29.9,28.5,00.0,38.2,31.5,10.7,0000.0,0005.60,0022.84,0003.38
2023-05-04 02:02:00,,0824.9,5.00,0.00,29.9,28.6,00.0,38.2,31.6,10.6,0000.0,0005.63,0021.98,0003.38
2023-05-04 02:03:00,,0824.9,5.00,0.00,30.0,28.7,00.0,38.3,31.6,10.5,0000.0,0005.63,0022.26,0003.37
2023-05-04 02:04:00,,0824.9,5.00,0.00,30.0,28.8,00.0,38.3,31.7,10.6,0000.0,0005.60,0022.91,0003.36
2023-05-04 02:05:00,,0824.9,5.00,0.00,30.0,28.8,00.0,38.3,31.7,10.5,0000.0,0005.59,0023.07,0003.36
2023-05-04 02:06:00,,0825.0,5.01,0.00,30.1,28.9,00.0,38.3,31.8,10.3,0000.0,0005.64,0022.89,0003.36
2023-05-04 02:07:00,,0825.0,5.00,0.00,30.1,28.9,00.0,38.3,31.8,10.5,0000.0,0005.59,0022.79,0003.37
2023-05-04 02:08:00,,0825.0,5.01,0.00,30.1,29.0,00.0,38.4,31.8,10.3,0000.0,0005.49,0022.77,0003.37
2023-05-04 02:09:00,,0825.1,5.00,0.00,30.2,29.0,00.0,38.4,31.8,10.0,0000.0,0005.45,0023.45,0003.36
2023-05-04 02:10:00,,0825.1,5.00,0.00,30.2,29.0,00.0,38.4,31.9,10.2,0000.0,0005.39,0021.45,0003.36
2023-05-04 02:11:00,,0825.1,4.98,0.00,30.2,27.7,00.0,38.4,31.7,10.3,0000.0,0005.31,0020.07,0003.36
2023-05-04 02:12:00,,0825.0,5.01,0.00,30.1,26.2,00.0,38.3,31.5,10.3,0000.0,0005.26,0019.04,0003.36
2023-05-04 02:13:00,,0825.0,5.01,0.00,30.1,26.1,00.0,38.2,31.3,10.4,0000.0,0005.21,0018.46,0003.37
2023-05-04 02:14:00,,0825.0,5.01,0.00,30.0,26.4,00.0,38.3,31.3,10.4,0000.0,0005.23,0018.08,0003.38
2023-05-04 02:15:00,,0825.0,4.98,0.00,29.9,26.7,00.0,38.3,31.3,10.4,0000.0,0005.27,0018.14,0003.40
2023-05-04 02:16:00,,0825.1,5.01,0.00,29.9,27.1,00.0,38.3,31.3,10.3,0000.0,0005.19,0018.39,0003.40
2023-05-04 02:17:00,,0825.0,5.01,0.00,29.9,27.4,00.0,38.3,31.4,10.4,0000.0,0005.09,0017.88,0003.39
2023-05-04 02:18:00,,0825.0,4.99,0.00,29.9,27.7,00.0,38.3,31.4,10.5,0000.0,0005.11,0019.35,0003.39
2023-05-04 02:19:00,,0825.1,5.01,0.00,29.9,27.9,00.0,38.3,31.5,10.7,0000.0,0005.17,0019.73,0003.40
2023-05-04 02:20:00,,0825.0,5.00,0.00,29.9,28.1,00.0,38.3,31.5,10.8,0000.0,0005.19,0018.21,0003.42
2023-05-04 02:21:00,,0825.1,4.99,0.00,30.0,28.2,00.0,38.3,31.5,10.8,0000.0,0005.19,0018.85,0003.41
2023-05-04 02:22:00,,0825.1,4.99,0.00,30.0,28.4,00.0,38.3,31.6,10.8,0000.0,0005.18,0018.97,0003.42
2023-05-04 02:23:00,,0825.0,4.99,0.00,30.0,28.5,00.0,38.3,31.6,10.8,0000.0,0005.17,0018.87,0003.41
2023-05-04 02:24:00,,0825.0,5.01,0.00,30.0,28.6,00.0,38.3,31.7,10.9,0000.0,0005.21,0018.63,0003.42
2023-05-04 02:25:00,,0825.0,5.01,0.00,30.0,28.7,00.0,38.3,31.7,10.8,0000.0,0005.20,0018.25,0003.40
2023-05-04 02:26:00,,0825.0,4.99,0.00,30.1,28.7,00.0,38.3,31.7,10.7,0000.0,0005.14,0018.04,0003.38
2023-05-04 02:27:00,,0825.1,5.00,0.00,30.1,28.8,00.0,38.4,31.7,10.6,0000.0,0005.15,0017.54,0003.38
2023-05-04 02:28:00,,0825.1,5.00,0.00,30.1,28.9,00.0,38.4,31.7,10.5,0000.0,0005.26,0017.79,0003.37
2023-05-04 02:29:00,,0825.1,5.00,0.00,30.1,28.9,00.0,38.4,31.8,10.3,0000.0,0005.26,0015.99,0003.37
2023-05-04 02:30:00,,0825.1,5.00,0.00,30.2,29.0,00.0,38.4,31.8,10.4,0000.0,0005.24,0014.82,0003.36
2023-05-04 02:31:00,,0825.1,5.01,0.00,30.2,29.0,00.0,38.4,31.9,10.3,0000.0,0005.26,0015.34,0003.33
2023-05-04 02:32:00,,0825.1,4.99,0.00,30.2,28.3,00.0,38.4,31.8,10.2,0000.0,0005.22,0015.49,0003.33
2023-05-04 02:33:00,,0825.1,5.00,0.00,30.1,26.5,00.0,38.3,31.5,10.3,0000.0,0005.27,0016.21,0003.33
2023-05-04 02:34:00,,0825.1,5.02,0.00,30.1,26.0,00.0,38.2,31.3,10.4,0000.0,0005.32,0016.45,0003.32
2023-05-04 02:35:00,,0825.1,5.00,0.00,29.9,26.1,00.0,38.3,31.1,10.6,0000.0,0005.30,0016.48,0003.31
2023-05-04 02:36:00,,0825.1,5.00,0.00,29.9,26.5,00.0,38.3,31.2,10.8,0000.0,0005.31,0016.48,0003.33
2023-05-04 02:37:00,,0825.1,5.01,0.00,29.9,26.8,00.0,38.3,31.2,10.9,0000.0,0005.33,0016.34,0003.34
2023-05-04 02:38:00,,0825.1,5.00,0.00,29.9,27.2,00.0,38.3,31.3,11.0,0000.0,0005.39,0016.78,0003.35
2023-05-04 02:39:00,,0825.1,4.98,0.00,29.9,27.5,00.0,38.3,31.4,11.1,0000.0,0005.39,0016.65,0003.36
2023-05-04 02:40:00,,0825.2,5.00,0.00,29.9,27.7,00.0,38.3,31.4,11.3,0000.0,0005.33,0017.39,0003.35
2023-05-04 02:41:00,,0825.2,5.01,0.00,29.9,27.9,00.0,38.3,31.4,11.4,0000.0,0005.35,0018.78,0003.36
2023-05-04 02:42:00,,0825.2,5.00,0.00,29.9,28.1,00.0,38.3,31.4,11.5,0000.0,0005.40,0019.45,0003.39
2023-05-04 02:43:00,,0825.2,4.99,0.00,29.9,28.2,00.0,38.3,31.5,11.7,0000.0,0005.43,0019.74,0003.41
2023-05-04 02:44:00,,0825.2,5.01,0.00,29.9,28.3,00.0,38.3,31.5,11.9,0000.0,0005.44,0019.23,0003.41
2023-05-04 02:45:00,,0825.2,5.01,0.00,29.9,28.4,00.0,38.3,31.6,12.0,0000.0,0005.47,0020.16,0003.43
2023-05-04 02:46:00,,0825.2,5.00,0.00,30.0,28.5,00.0,38.3,31.6,12.1,0000.0,0005.48,0020.13,0003.44
2023-05-04 02:47:00,,0825.2,4.99,0.00,30.0,28.6,00.0,38.3,31.6,12.1,0000.0,0005.53,0020.41,0003.44
2023-05-04 02:48:00,,0825.2,4.99,0.00,30.0,28.6,00.0,38.3,31.7,12.1,0000.0,0005.55,0021.86,0003.45
2023-05-04 02:49:00,,0825.2,5.00,0.00,30.0,28.7,00.0,38.3,31.7,12.1,0000.0,0005.53,0021.48,0003.45
2023-05-04 02:50:00,,0825.2,5.01,0.00,30.0,28.7,00.0,38.3,31.7,12.1,0000.0,0005.48,0021.23,0003.44
2023-05-04 02:51:00,,0825.2,5.01,0.00,30.0,28.7,00.0,38.4,31.7,12.1,0000.0,0005.48,0020.27,0003.45
2023-05-04 02:52:00,,0825.2,5.00,0.00,30.1,28.8,00.0,38.4,31.7,12.0,0000.0,0005.47,0018.90,0003.45
2023-05-04 02:53:00,,0825.2,5.00,0.00,30.1,28.8,00.0,38.4,31.7,12.0,0000.0,0005.48,0018.23,0003.47
2023-05-04 02:54:00,,0825.3,5.00,0.00,30.1,28.8,00.0,38.4,31.8,12.1,0000.0,0005.50,0017.24,0003.46
2023-05-04 02:55:00,,0825.2,5.00,0.00,30.1,28.8,00.0,38.4,31.8,12.1,0000.0,0005.47,0017.13,0003.46
2023-05-04 02:56:00,,0825.3,5.00,0.00,30.1,28.8,00.0,38.4,31.8,12.1,0000.0,0005.41,0016.30,0003.46
2023-05-04 02:57:00,,0825.2,5.01,0.00,30.1,28.8,00.0,38.4,31.8,12.1,0000.0,0005.44,0016.95,0003.46
2023-05-04 02:58:00,,0825.2,5.00,0.00,30.2,28.8,00.0,38.4,31.8,12.1,0000.0,0005.39,0017.27,0003.46
2023-05-04 02:59:00,,0825.3,4.99,0.00,30.2,28.8,00.0,38.5,31.8,12.0,0000.0,0005.35,0015.87,0003.46
